Location: Bonneuil
(46.1010°N, 2.9693°E)
Time: 11:43:38
(UTC+00:00)

Cosmos 1953 Rocket - Pass Details

Date: 09 April 2020
Orbit: 603 x 635 km, 82.5° (Epoch: 05 June)

Event Time Altitude Azimuth Distance (km) Brightness Sun altitude
Rises 19:26:01 0° 350° (N) 2,938 7.5 -10.4°
Reaches altitude 10° 19:28:16 10° 349° (N) 2,028 6.7 -10.8°
Maximum altitude 19:32:46 81° 263° (W) 650 3.7 -11.5°
Drops below altitude 10° 19:37:15 10° 176° (S) 2,017 5.9 -12.2°
Sets 19:39:29 0° 176° (S) 2,920 6.7 -12.5°
